Location: Favalello
(42.2939°N, 9.2706°E)
Time: 13:27:50
(UTC+00:00)

Cosmos 292 Rocket - Pass Details

Date: 06 December 2019
Orbit: 673 x 695 km, 74.0° (Epoch: 16 January)

Event Time Altitude Azimuth Distance (km) Brightness Sun altitude
Rises 18:26:51 0° 335° (NNW) 3,081 7.4 -28.1°
Reaches altitude 10° 18:29:13 10° 332° (NNW) 2,160 6.6 -28.6°
Enters shadow 18:33:45 55° 267° (W) 832 4.4 -29.4°
